Regional Weather Roundup
Issued by NWS

Home | Current Version | Previous Version | Text Only | Print | Product List | Glossary On
Versions: 1 2 3 4 5 6 7 8 9 10 11 12 13 14 15 16 17 18 19 20 21 22 23 24 25 26 27 28 29 30 31 32 33 34 35 36 37 38 39 40 41 42 43 44 45 46 47 48 49 50
000
ASUS45 KPSR 260010
RWRAZ

ARIZONA HOURLY REGIONAL WEATHER ROUNDUP
NATIONAL WEATHER SERVICE PHOENIX AZ
500 PM MST TUE APR 25 2017

NOTE: FAIR INDICATES FEW OR NO CLOUDS BELOW 12,000 FEET WITH NO
SIGNIFICANT WEATHER AND/OR OBSTRUCTIONS TO VISIBILITY.

AZZ001>003-036-260100-
NORTHWEST ARIZONA

CITY           SKY/WX    TMP DP  RH WIND       PRES   REMARKS
BULLHEAD CITY  SUNNY     86  16   7 N16G23    29.67F
KINGMAN        SUNNY     71  20  14 N20G38    29.80F
6HR MIN TEMP:  68; 6HR MAX TEMP:  74;

$$

AZZ004>008-015-016-018-260100-
NORTH CENTRAL ARIZONA

CITY           SKY/WX    TMP DP  RH WIND       PRES   REMARKS
GRAND CANYON   MOSUNNY   53  17  24 NW15G31   29.84R
6HR MIN TEMP:  52; 6HR MAX TEMP:  57;

WILLIAMS       SUNNY     57  14  18 NW15G25   29.85S
PRESCOTT       SUNNY     65   8  10 NW22G37   29.80R
6HR MIN TEMP:  65; 6HR MAX TEMP:  70;

FLAGSTAFF      SUNNY     54  10  17 W12G25    29.82S
6HR MIN TEMP:  54; 6HR MAX TEMP:  58;

PAYSON         MOSUNNY   68  14  12 W16G26    29.78S
PAGE           MOSUNNY   63  21  20 NW20G32   29.76R
6HR MIN TEMP:  62; 6HR MAX TEMP:  67;

$$

AZZ009>014-017-260100-
NORTHEAST ARIZONA

CITY           SKY/WX    TMP DP  RH WIND       PRES   REMARKS
WINSLOW        SUNNY     69  10  10 NW28G38   29.71R
6HR MIN TEMP:  65; 6HR MAX TEMP:  75;

SAINT JOHNS    LGT RAIN  60  33  36 W26G35    29.69R
6HR MIN TEMP:  51; 6HR MAX TEMP:  65; 6HR PCP:  0.09;

WINDOW ROCK    CLOUDY    50  29  44 N21G31    29.75R
6HR MIN TEMP:  47; 6HR MAX TEMP:  61; 6HR PCP:  0.02;

SHOW LOW       MOSUNNY   57  28  33 SW29      29.78R
$$

AZZ540-542>544-546-548-260100-
GREATER PHOENIX AREA

CITY           SKY/WX    TMP DP  RH WIND       PRES   REMARKS
PHOENIX        PTSUNNY   86  30  13 W20G35    29.61S
6HR MIN TEMP:  76; 6HR MAX TEMP:  87;

BUCKEYE        SUNNY     84  21  10 W24G31    29.65R
GLENDALE       PTSUNNY   90  18   7 W20G25    29.63S
LUKE AFB       SUNNY     87  19   8 W23       29.61R
6HR MIN TEMP:  77; 6HR MAX TEMP:  88; 6HR PCP: TRACE;

DEER VALLEY    SUNNY     86  15   7 W22G36    29.62R
6HR MIN TEMP:  74; 6HR MAX TEMP:  87;

SCOTTSDALE     SUNNY     85  23  10 W16G35    29.64S
6HR MIN TEMP:  75; 6HR MAX TEMP:  85;

MESA-FALCON    MOSUNNY  N/A N/A N/A SW17G25   29.63F
MESA-GATEWAY   MOSUNNY   82  32  16 W17G26    29.65F
CHANDLER       SUNNY     84  32  15 W15       29.64S
$$

AZZ539-553-260100-
SOUTHWEST MARICOPA COUNTY AND PINAL COUNTY

CITY           SKY/WX    TMP DP  RH WIND       PRES   REMARKS
CASA GRANDE    SUNNY     82  36  19 W17G25    29.67S
6HR MIN TEMP:  76; 6HR MAX TEMP:  83;

GILA BEND      CLOUDY    85  30  13 W14       29.65S
6HR MIN TEMP:  78; 6HR MAX TEMP:  87;

$$

AZZ503-504-507>509-260100-
SOUTHEAST ARIZONA

CITY           SKY/WX    TMP DP  RH WIND       PRES   REMARKS
TUCSON         MOSUNNY   80  41  24 SW16G30   29.73F
6HR MIN TEMP:  77; 6HR MAX TEMP:  83;

DAVIS-MONTHAN  SUNNY     79  42  26 W20G28    29.71F
6HR MIN TEMP:  77; 6HR MAX TEMP:  80;

RYAN FIELD     SUNNY     81  37  21 W20G26    29.72F
NOGALES        CLOUDY    74  39  28 SW15G24   29.80S
6HR MIN TEMP:  73; 6HR MAX TEMP:  79;

SIERRA VISTA   PTSUNNY   71  36  26 W23G30    29.81S
6HR MIN TEMP:  71; 6HR MAX TEMP:  76;

DOUGLAS        PTSUNNY   75  34  22 SW26G32   29.75F
6HR MIN TEMP:  75; 6HR MAX TEMP:  81;

SAFFORD        SUNNY     77  36  22 W30G44    29.64S
6HR MIN TEMP:  77; 6HR MAX TEMP:  82;

$$

AZZ532-260100-
SOUTHWEST ARIZONA

CITY           SKY/WX    TMP DP  RH WIND       PRES   REMARKS
YUMA           PTSUNNY   85  39  19 W15       29.70R
6HR MIN TEMP:  78; 6HR MAX TEMP:  87;

$$

CAZ041-043-047-048-061-525>527-560>570-260100-
SOUTHERN CALIFORNIA

CITY           SKY/WX    TMP DP  RH WIND       PRES   REMARKS
DOWNTOWN L.A.  PTSUNNY   75  46  35 W9        29.83F
6HR MIN TEMP:  73; 6HR MAX TEMP:  77;

L.A. AIRPORT   PTSUNNY   66  53  63 W14       29.86F
6HR MIN TEMP:  64; 6HR MAX TEMP:  72;

SAN DIEGO      PTSUNNY   68  52  56 W10       29.91F
6HR MIN TEMP:  66; 6HR MAX TEMP:  69;

BURBANK        PTSUNNY   75  30  19 NW15G28   29.85F
6HR MIN TEMP:  70; 6HR MAX TEMP:  76;

ONTARIO        CLOUDY    71  42  35 SW12      29.85F
6HR MIN TEMP:  65; 6HR MAX TEMP:  73;

RIVERSIDE      CLOUDY    73  43  33 W9        29.85F
6HR MIN TEMP:  65; 6HR MAX TEMP:  75;

PALM SPRINGS   MOSUNNY   82  44  26 NW15G22   29.75F
6HR MIN TEMP:  79; 6HR MAX TEMP:  84;

EL CENTRO NAS  CLOUDY    85  35  16 W13G22    29.72F
6HR MIN TEMP:  82; 6HR MAX TEMP:  88;

IMPERIAL       CLOUDY    84  40  21 W7        29.70S
6HR MIN TEMP:  81; 6HR MAX TEMP:  86;

BLYTHE         PTSUNNY   87  28  12 W12G22    29.68F
6HR MIN TEMP:  81; 6HR MAX TEMP:  87;

NEEDLES        MOSUNNY   88  18   7 NE13      29.68F
6HR MIN TEMP:  82; 6HR MAX TEMP:  91;

$$

NVZ020-UTZ003-260100-
SOUTHERN NEVADA-UTAH

CITY           SKY/WX    TMP DP  RH WIND       PRES   REMARKS
LAS VEGAS      MOSUNNY   79  15   9 N22G28    29.74S
6HR MIN TEMP:  72; 6HR MAX TEMP:  79;

SALT LAKE CITY PTSUNNY   51  36  56 NW12      29.89R
6HR MIN TEMP:  35; 6HR MAX TEMP:  53; 6HR PCP:  0.25;

$$

NMZ009-TXZ055-260100-
NEW MEXICO-WEST TEXAS

CITY           SKY/WX    TMP DP  RH WIND       PRES   REMARKS
ALBUQUERQUE    PTSUNNY   53  41  63 N17G26    29.64R
6HR MIN TEMP:  48; 6HR MAX TEMP:  59; 6HR PCP: TRACE;

EL PASO        MOSUNNY   83  24  11 W28G47    29.56F
6HR MIN TEMP:  79; 6HR MAX TEMP:  85;

$$


........................KEY........................
SKY/WX - SKY CONDITION/WEATHER
TMP    - TEMPERATURE IN FAHRENHEIT
DP     - DEW POINT IN FAHRENHEIT
RH     - RELATIVE HUMIDITY IN PERCENT
WIND   - DIRECTION AND SPEED IN MILES PER HOUR (MPH)
VRB    - VARIABLE WIND DIRECTION
PRES   - MEAN SEA LEVEL PRESSURE IN INCHES OF MERCURY
         F - FALLING PRESSURE   R - RISING PRESSURE
         S - STEADY PRESSURE
VSB    - VISIBILITY IN MILES
HX     - HEAT INDEX IN FAHRENHEIT
WCI    - WIND CHILL INDEX IN FAHRENHEIT
TC     - TEMPERATURE IN CELSIUS WHICH IS ALSO KNOWN AS
         TEMPERATURE IN CENTIGRADE
AFB    - AIR FORCE BASE
         LUKE AFB IS LUKE AIR FORCE BASE
         DAVIS-MONTHAN IS DAVIS-MONTHAN AIR FORCE BASE
NAS    - NAVAL AIR STATION
         EL CENTRO NAS IS EL CENTRO NAVAL AIR STATION
N/A    - NOT AVAILABLE




USA.gov is the U.S. government's official web portal to all federal, state and local government web resources and services.